Location: Waco, TX
(31.5480°N, 97.1670°W)
Time: 16:33:36
(UTC-06:00)

ISS - Pass Details

Date: 17 January 2018
Orbit: 402 x 407 km, 51.6° (Epoch: 22 January)

Event Time Altitude Azimuth Distance (km) Brightness Sun altitude
Rises 22:35:06 0° 256° (WSW) 2,303 - -60.2°
Reaches altitude 10° 22:37:33 10° 274° (W) 1,448 - -60.7°
Maximum altitude 22:40:00 19° 323° (NW) 1,012 - -61.2°
Drops below altitude 10° 22:42:28 10° 13° (NNE) 1,454 - -61.7°
Sets 22:44:56 0° 31° (NNE) 2,316 - -62.2°
